Погода в Плезантоне

США     37°40′36″N   121°49′32″W
темп.,
°C
ветер,
м/с
пор.,
м/с
влажн.,
%
обл.,
%
осадки,
мм/ч
давл.,
гПа
погр.,
м
31 июля, сб
сб3123:00+19юз4760100 0.0 1014191
02:00+17юз3466100 0.0 1013128
05:00+16юз347290 0.0 1014120
08:00+19юз335899 0.0 1016223
11:00+27зюз3334100 0.0 1016511
14:00+33зюз55235 0.0 1014851
17:00+32зюз78265 0.0 1013650
20:00+23зюз47380 0.0 1014263
1 августа, вс
вс123:00+18юз46574 0.0 1016177
02:00+16юз33650 0.0 101679
05:00+15юз33670 0.0 101651
08:00+19зюз22480 0.0 1017167
11:00+28з22263 0.0 1016621
14:00+34зюз54160 0.0 10151235
17:00+30зюз77235 0.0 1014666
20:00+21зюз47450 0.0 1015278
2 августа, пн
пн223:00+16юз46720 0.0 1017191
02:00+14юз33800 0.0 101781
05:00+13юз32780 0.0 101740
08:00+18зюз22540 0.0 1018167
11:00+27з22224 0.0 1017624
14:00+33зюз431328 0.0 10161194
17:00+33зюз65125 0.0 1014813
20:00+24юз34235 0.0 101479
3 августа, вт
вт323:00+17юз44430 0.0 101564
02:00+16юз33460 0.0 101448
05:00+15юз33480 0.0 101436
08:00+19зюз22380 0.0 1015138
11:00+29з22160 0.0 1015538
14:00+34зюз54100 0.0 1013960
17:00+32зюз78110 0.0 1011560
20:00+22юз45290 0.0 1012122
4 августа, ср
ср423:00+16юз45560 0.0 1013109
02:00+14юз45750 0.0 1013110
05:00+12юз44850 0.0 101494
08:00+16юз34650 0.0 1015191
11:00+25зюз45300 0.0 1015492
14:00+28зюз89250 0.0 1014623
17:00+25зюз810370 0.0 1014503
20:00+15зюз511720 0.0 1015364